Preview of NWS' New Version of Forecast
This preview is not operational and should not be used for support decisions.

Regional Weather Roundup (RWR)

Issued by Philadelphia/Mt Holly (PHI)

                            
000
ASUS41 KPHI 171011
RWRPHI

REGIONAL WEATHER ROUNDUP
NATIONAL WEATHER SERVICE MOUNT HOLLY NJ
600 AM EDT MON JUN 17 2019

NOTE:  "FAIR" INDICATES FEW OR NO CLOUDS BELOW 12,000 FEET WITH NO
SIGNIFICANT WEATHER AND/OR OBSTRUCTIONS TO VISIBILITY.

 * = STATION DOES NOT REPORT PRECIPITATION (E.G. RAIN, SNOW, ETC.) 
        OR FOG.

NJZ015>026-171100-
SOUTHERN NEW JERSEY
  
CITY           SKY/WX    TMP DP  RH WIND       PRES   REMARKS
POMONA         FAIR      73  70  90 W5        29.91S                  
WILDWOOD*      FAIR      74  70  87 SW8       29.94R                  
MILLVILLE      FAIR      71  70  96 SW3       29.91R                  
WRIGHTSTOWN    FAIR      69  69 100 CALM      29.89R FOG              
MOUNT HOLLY    FAIR      70  69  97 CALM      29.92R FOG              
TRENTON        FAIR      69  67  93 NW6       29.92R                  

$$
NJZ001>014-171100-
NORTHERN NEW JERSEY
  
CITY           SKY/WX    TMP DP  RH WIND       PRES   REMARKS
SUSSEX         CLOUDY    66  65  96 CALM      29.96R                  
ANDOVER*         N/A     66  64  93 CALM      29.95R                  
MORRISTOWN     MOCLDY    64  64 100 CALM      29.93R                  
NEWARK         MOCLDY    71  65  81 N7        29.91R                  
TETERBORO      MOCLDY    69  65  86 NW5       29.91R                  
CALDWELL       FAIR      69  66  90 CALM      29.93R                  
SOMERVILLE     FAIR      67  64  90 NW3       29.91R                  
ALLAIRE*       FAIR      69  68  96 W5        29.93R                  
TOMS RIVER*    FAIR     N/A N/A N/A CALM      29.93R                  

$$
PAZ043-044-047-054-055-060>062-066>071-171100-
EASTERN PENNSYLVANIA
  
CITY           SKY/WX    TMP DP  RH WIND       PRES   REMARKS
PHILADELPHIA   MOCLDY    69  68  96 N3        29.90F                  
NORTH PHILA    FAIR      73  67  81 CALM      29.91F                  
BLUE BELL*     MOCLDY    69  67  94 NW6       29.90F                  
DOYLESTOWN     FAIR      68  65  90 NE6       29.92R                  
QUAKERTOWN*    PTCLDY    66  66 100 NE7       29.92                   
PERKASIE*      FAIR      66  66 100 N8        29.92F                  
POTTSTOWN      LGT RAIN  67  67 100 NE5       29.91F                  
LANCASTER      FAIR      70  68  93 SW7       29.93R                  
COATESVILLE    FAIR      68  68 100 S5        29.95R                  
WEST CHESTER   FAIR      70  66  88 CALM      29.94R                  
READING        FAIR      68  68 100 N9        29.88F                  
ALLENTOWN      FAIR      67  64  90 SW5       29.95R                  
QN CITY/ALNTWN MOCLDY   N/A N/A N/A CALM      29.95R                  
MOUNT POCONO   CLOUDY    62  62 100 NW7       29.99R                  
HAZLETON       FOG       63  61  94 NW6       30.01S VSB 3/4          
LEHIGHTON      FOG       64  64 100 CALM      29.95S VSB 1            
WILKES BARRE   CLOUDY    63  61  93 CALM      29.98R                  

$$
DEZALL-MDZ008-012-015-019-020-171100-
DELAWARE AND EASTERN MARYLAND
  
CITY           SKY/WX    TMP DP  RH WIND       PRES   REMARKS
WILMINGTON     FAIR      72  71  97 CALM      29.92R                  
DOVER          FAIR      73  69  88 SW6       29.92R                  
CHESWOLD       MOSUNNY   70  70 100 CALM      29.93R                  
GEORGETOWN     FAIR      76  70  82 SW3       29.95R                  
EASTON         PTCLDY    73  70  88 CALM      29.97R                  
ABERDEEN       MOCLDY    69  68  96 SW3       29.93                   
PATUXENT       FAIR      76  71  85 NW9       29.94                   
OCEAN CITY     FAIR      75  68  78 W5        29.94R                  
WALLOPS ISLAND NOT AVBL                                               
CAMBRIDGE      CLEAR     75  70  83 CALM      29.94R                  
SALISBURY      FAIR      75  70  84 CALM      29.94R                  

$$
PAZ001-021-NYZ056-072-MDZ011-DCZ001-171100-
OTHER NEARBY LOCATIONS
  
CITY           SKY/WX    TMP DP  RH WIND       PRES   REMARKS
HARRISBURG     CLOUDY    70  67  90 CALM      29.93R                  
STATE COLLEGE  DRZL/FOG  63  63 100 CALM      29.98R VSB 1/2          
WILLIAMSPORT   CLOUDY    64  62  93 CALM      29.95R                  
BINGHAMTON     CLOUDY    55  54  96 NW3       29.99R                  
NEW YORK CITY  MOCLDY    70  65  84 CALM      29.94R                  
BALTIMORE      MOCLDY    73  67  81 W6        29.94R                  
WASHINGTON DC  FAIR      76  66  71 N6        29.95R                  

$$